TimeCST,TemperatureF,Dew PointF,Humidity,Sea Level PressureIn,VisibilityMPH,Wind Direction,Wind SpeedMPH,Gust SpeedMPH,PrecipitationIn,Events,Conditions,WindDirDegrees,DateUTC
12:53 AM,27.0,24.1,89,30.33,10.0,Calm,Calm,-,N/A,,Clear,0,2013-11-29 06:53:00
1:53 AM,28.0,24.1,85,30.30,10.0,Calm,Calm,-,N/A,,Clear,0,2013-11-29 07:53:00
2:53 AM,26.1,23.0,88,30.29,10.0,Calm,Calm,-,N/A,,Clear,0,2013-11-29 08:53:00
3:53 AM,25.0,21.0,85,30.28,10.0,SW,3.5,-,N/A,,Clear,220,2013-11-29 09:53:00
4:53 AM,23.0,19.9,88,30.28,10.0,SSW,5.8,-,N/A,,Clear,210,2013-11-29 10:53:00
5:53 AM,24.1,19.9,84,30.28,10.0,SSW,4.6,-,N/A,,Clear,210,2013-11-29 11:53:00
6:53 AM,25.0,21.0,85,30.27,10.0,South,6.9,-,N/A,,Clear,180,2013-11-29 12:53:00
7:53 AM,27.0,23.0,85,30.28,10.0,SSW,8.1,-,N/A,,Clear,200,2013-11-29 13:53:00
8:53 AM,33.1,30.0,89,30.25,10.0,SSW,15.0,-,N/A,,Clear,200,2013-11-29 14:53:00
9:53 AM,39.0,34.0,82,30.23,10.0,South,15.0,-,N/A,,Clear,190,2013-11-29 15:53:00
10:53 AM,46.9,35.1,63,30.21,10.0,SW,12.7,-,N/A,,Clear,220,2013-11-29 16:53:00
11:53 AM,52.0,35.1,53,30.15,10.0,SSW,19.6,27.6,N/A,,Clear,200,2013-11-29 17:53:00
12:53 PM,55.9,34.0,44,30.11,10.0,SSW,21.9,-,N/A,,Clear,210,2013-11-29 18:53:00
1:53 PM,57.9,35.1,42,30.07,10.0,SSW,20.7,-,N/A,,Clear,210,2013-11-29 19:53:00
2:53 PM,59.0,36.0,42,30.06,10.0,SSW,17.3,-,N/A,,Clear,210,2013-11-29 20:53:00
3:53 PM,62.1,36.0,38,30.05,10.0,SSW,16.1,-,N/A,,Clear,210,2013-11-29 21:53:00
4:53 PM,59.0,36.0,42,30.07,10.0,SSW,9.2,-,N/A,,Clear,200,2013-11-29 22:53:00
5:53 PM,50.0,36.0,59,30.09,10.0,SSW,9.2,-,N/A,,Clear,210,2013-11-29 23:53:00
6:53 PM,45.0,34.0,65,30.12,10.0,SW,9.2,-,N/A,,Clear,220,2013-11-30 00:53:00
7:53 PM,46.9,34.0,61,30.14,10.0,WNW,9.2,-,N/A,,Clear,290,2013-11-30 01:53:00
8:53 PM,44.1,34.0,68,30.13,10.0,NW,5.8,-,N/A,,Clear,310,2013-11-30 02:53:00
9:53 PM,39.0,33.1,79,30.13,10.0,NNW,3.5,-,N/A,,Clear,330,2013-11-30 03:53:00
10:53 PM,37.0,30.9,79,30.15,10.0,SW,8.1,-,N/A,,Clear,230,2013-11-30 04:53:00
11:53 PM,35.1,30.0,82,30.14,10.0,WSW,9.2,-,N/A,,Clear,250,2013-11-30 05:53:00